This is the latest recevied weather packets stored in our database for station/object VO2AGO. If no packets are shown the sender has not sent any weather packets the latest 10 day(s).
| Time | Temp. | Humidity | Pressure | Rain* | Wind** | Luminosity | Snow |
|---|---|---|---|---|---|---|---|
| 1778094800 | 5° C | - | - | - | 0 m/s | 538 W/m² | - |
| 1778094349 | 5.56° C | - | - | - | 0 m/s | 312 W/m² | - |
| 1778093899 | 6.11° C | - | - | - | 0 m/s | 339 W/m² | - |
| 1778093449 | 6.67° C | - | - | - | 0 m/s | 818 W/m² | - |
| 1778092999 | 6.67° C | - | - | - | 0 m/s | 1187 W/m² | - |
| 1778092549 | 6.67° C | 95% | 100.9 hPa | 0 mm | 0 m/s | 1151 W/m² | - |
| 1778092099 | 7.22° C | 98% | 100.9 hPa | 0 mm | 0 m/s | 1331 W/m² | - |
| 1778091649 | 5.56° C | - | - | - | 0 m/s | 789 W/m² | - |
| 1778091199 | 5.56° C | - | - | - | 0 m/s | 508 W/m² | - |
| 1778090750 | 6.11° C | - | - | - | 0 m/s | 625 W/m² | - |
| 1778090298 | 6.11° C | - | - | - | 0 m/s | 1341 W/m² | - |
| 1778089849 | 5.56° C | - | - | - | 0 m/s | 1072 W/m² | - |
| 1778089399 | 5.56° C | - | - | - | 0 m/s | 973 W/m² | - |
| 1778088950 | 4.44° C | - | - | - | 0 m/s | 1153 W/m² | - |
| 1778088500 | 4.44° C | - | - | - | 0 m/s | 1102 W/m² | - |
| 1778088049 | 5.56° C | - | - | - | 0 m/s | 1090 W/m² | - |
| 1778087599 | 6.11° C | - | - | - | 0 m/s | 1568 W/m² | - |
| 1778087149 | 4.44° C | - | - | - | 0 m/s | 1109 W/m² | - |
| 1778086700 | 5° C | - | - | - | 0 m/s | 683 W/m² | - |
| 1778086250 | 4.44° C | - | - | - | 0 m/s | 1287 W/m² | - |
| 1778085801 | 4.44° C | - | - | - | 0 m/s | 1326 W/m² | - |
| 1778085349 | 5° C | - | - | - | 0 m/s | 926 W/m² | - |
| 1778084899 | 4.44° C | - | - | - | 0 m/s | 1160 W/m² | - |
| 1778083999 | 4.44° C | - | - | - | 0 m/s | 1127 W/m² | - |
| 1778083549 | 3.89° C | - | - | - | 0 m/s | 1134 W/m² | - |
* Rain since midnight (hover to see other rain measurements)
** Current wind speed in m/s (hover to see current wind gust speed)